Volver al catálogo

CZ-4 DEB

ActivoSSO
NORAD 28075·DEBRIS·🇨🇳 China

Lanzado Oct 14, 1999 desde Taiyuan Satellite Launch Center

Loading…

Próximos Pases (próximas 24 horas)

TLE

EnvejeciendoSource: Space-Track

Época: Sep 9, 2026, 23:24 UTC

1 28075U 99057NF  26252.97546751  .00000441  00000-0  13754-3 0  9995
2 28075  98.6134 318.4258 0094390 293.9213  65.2112 14.43518638746423

Sigue CZ-4 DEB en tiempo real con AllMySat

Download on the App Store